When you browse on this site, cookies collect data to enhance your experience and personalize the content and advertising you see.
Visit our Privacy Policy to learn more. By continuing to use the site, you agree to this use of cookies and data.
  • In United Kingdom
  • List of Countries
  • For 7 days
  • Water Temperature
  • Weather Map
  • Weather Widgets
  • user-avatar
    Login

    Hourly Weather Trinidad

    Today, 23 October, Wednesday

    Time Temperature Precipitation Wind Pressure Humidity
    00:00 +23°C° 0 mm 0 mps 743 mmHg 79%
    01:00 +23°C° 0 mm 0 mps 742 mmHg 78%
    02:00 +23°C° 0 mm 0 mps 743 mmHg 84%
    03:00 +25°C° 0.4 mm 1 mps 742 mmHg 81%
    04:00 +25°C° 0.4 mm 1 mps 742 mmHg 78%
    05:00 +25°C° 0.4 mm 1 mps 742 mmHg 75%
    06:00 +25°C° 0 mm 1 mps 743 mmHg 73%
    07:00 +26°C° 0 mm 1 mps 744 mmHg 71%
    08:00 +26°C° 0 mm 1 mps 744 mmHg 69%
    09:00 +29°C° 0.1 mm 1 mps 744 mmHg 60%
    10:00 +32°C° 0.1 mm 1 mps 744 mmHg 51%
    11:00 +35°C° 0.1 mm 1 mps 744 mmHg 42%
    12:00 +35°C° 0 mm 1 mps 743 mmHg 42%
    13:00 +36°C° 0 mm 1 mps 742 mmHg 41%
    14:00 +37°C° 0 mm 1 mps 742 mmHg 41%
    15:00 +36°C° 0 mm 1 mps 741 mmHg 45%
    16:00 +35°C° 0 mm 1 mps 741 mmHg 48%
    17:00 +35°C° 0 mm 2 mps 740 mmHg 51%
    18:00 +32°C° 0 mm 1 mps 741 mmHg 57%
    19:00 +31°C° 0 mm 1 mps 741 mmHg 62%
    20:00 +29°C° 0 mm 1 mps 742 mmHg 68%
    21:00 +29°C° 0 mm 1 mps 742 mmHg 70%
    22:00 +28°C° 0 mm 1 mps 742 mmHg 72%
    23:00 +28°C° 0 mm 1 mps 742 mmHg 74%

    Tomorrow, 24 October, Thursday

    Time Temperature Precipitation Wind Pressure Humidity
    00:00 +25°C° 0 mm 0 mps 742 mmHg 75%
    01:00 +25°C° 0 mm 0 mps 741 mmHg 75%
    02:00 +25°C° 0 mm 0 mps 741 mmHg 76%
    03:00 +25°C° 0 mm 0 mps 741 mmHg 77%
    04:00 +25°C° 0 mm 0 mps 742 mmHg 78%
    05:00 +25°C° 0 mm 0 mps 742 mmHg 78%
    06:00 +26°C° 0 mm 0 mps 742 mmHg 73%
    07:00 +28°C° 0 mm 0 mps 743 mmHg 67%
    08:00 +30°C° 0 mm 0 mps 744 mmHg 61%
    09:00 +32°C° 0 mm 0 mps 744 mmHg 53%
    10:00 +36°C° 0 mm 1 mps 744 mmHg 46%
    11:00 +40°C° 0 mm 1 mps 744 mmHg 38%
    12:00 +39°C° 0 mm 1 mps 743 mmHg 39%
    13:00 +39°C° 0 mm 2 mps 742 mmHg 40%
    14:00 +38°C° 0 mm 2 mps 741 mmHg 40%
    15:00 +37°C° 0.1 mm 2 mps 740 mmHg 45%
    16:00 +35°C° 0.1 mm 1 mps 740 mmHg 49%
    17:00 +34°C° 0.1 mm 1 mps 739 mmHg 53%
    18:00 +33°C° 0 mm 1 mps 739 mmHg 57%
    19:00 +31°C° 0 mm 1 mps 740 mmHg 61%
    20:00 +30°C° 0 mm 1 mps 740 mmHg 65%
    21:00 +29°C° 0 mm 1 mps 740 mmHg 66%
    22:00 +29°C° 0 mm 1 mps 741 mmHg 67%
    23:00 +29°C° 0 mm 1 mps 741 mmHg 69%

    Day after tomorrow, 25 October, Friday

    Time Temperature Precipitation Wind Pressure Humidity
    00:00 +28°C° 0 mm 1 mps 741 mmHg 69%
    01:00 +28°C° 0 mm 1 mps 741 mmHg 70%
    02:00 +26°C° 0 mm 0 mps 741 mmHg 70%
    03:00 +25°C° 0 mm 0 mps 741 mmHg 72%
    04:00 +25°C° 0 mm 0 mps 741 mmHg 74%
    05:00 +25°C° 0 mm 0 mps 741 mmHg 76%
    06:00 +26°C° 0 mm 0 mps 742 mmHg 70%
    07:00 +30°C° 0 mm 1 mps 743 mmHg 65%
    08:00 +32°C° 0 mm 1 mps 743 mmHg 59%
    09:00 +34°C° 0 mm 1 mps 744 mmHg 52%
    10:00 +37°C° 0 mm 1 mps 744 mmHg 45%
    11:00 +40°C° 0 mm 1 mps 744 mmHg 38%
    12:00 +40°C° 0 mm 2 mps 743 mmHg 37%
    13:00 +40°C° 0 mm 2 mps 742 mmHg 36%
    14:00 +40°C° 0 mm 2 mps 741 mmHg 35%
    15:00 +40°C° 0 mm 2 mps 740 mmHg 36%
    16:00 +39°C° 0 mm 2 mps 740 mmHg 38%
    17:00 +39°C° 0 mm 1 mps 739 mmHg 39%
    18:00 +36°C° 0 mm 1 mps 739 mmHg 45%
    19:00 +34°C° 0 mm 1 mps 740 mmHg 50%
    20:00 +32°C° 0 mm 1 mps 740 mmHg 56%
    21:00 +31°C° 0 mm 1 mps 740 mmHg 59%
    22:00 +30°C° 0 mm 1 mps 741 mmHg 61%
    23:00 +30°C° 0 mm 1 mps 741 mmHg 63%

    26 October, Saturday

    Time Temperature Precipitation Wind Pressure Humidity
    00:00 +29°C° 0 mm 1 mps 741 mmHg 66%
    01:00 +29°C° 0 mm 1 mps 741 mmHg 69%
    02:00 +28°C° 0 mm 1 mps 741 mmHg 72%
    03:00 +28°C° 0 mm 1 mps 741 mmHg 74%
    04:00 +27°C° 0 mm 1 mps 741 mmHg 77%
    05:00 +25°C° 0 mm 0 mps 741 mmHg 80%
    06:00 +28°C° 0 mm 1 mps 742 mmHg 75%
    07:00 +29°C° 0 mm 1 mps 743 mmHg 71%
    08:00 +31°C° 0 mm 2 mps 743 mmHg 66%
    09:00 +34°C° 0 mm 2 mps 743 mmHg 59%
    10:00 +36°C° 0 mm 2 mps 743 mmHg 53%
    11:00 +38°C° 0 mm 2 mps 743 mmHg 46%
    12:00 +38°C° 0 mm 2 mps 742 mmHg 43%
    13:00 +39°C° 0 mm 2 mps 741 mmHg 40%
    14:00 +40°C° 0 mm 2 mps 740 mmHg 38%
    15:00 +39°C° 0 mm 3 mps 740 mmHg 39%
    16:00 +38°C° 0 mm 3 mps 739 mmHg 41%
    17:00 +38°C° 0 mm 3 mps 739 mmHg 43%
    18:00 +36°C° 0 mm 2 mps 739 mmHg 49%
    19:00 +34°C° 0 mm 2 mps 740 mmHg 55%
    20:00 +31°C° 0 mm 2 mps 740 mmHg 61%
    21:00 +31°C° 0 mm 2 mps 740 mmHg 64%
    22:00 +30°C° 0 mm 2 mps 741 mmHg 66%
    23:00 +30°C° 0 mm 2 mps 741 mmHg 68%

    27 October, Sunday

    Time Temperature Precipitation Wind Pressure Humidity
    00:00 +29°C° 0 mm 2 mps 741 mmHg 71%
    01:00 +29°C° 0 mm 2 mps 740 mmHg 73%
    02:00 +28°C° 0 mm 2 mps 740 mmHg 76%
    03:00 +27°C° 0 mm 2 mps 740 mmHg 78%
    04:00 +27°C° 0 mm 2 mps 740 mmHg 81%
    05:00 +26°C° 0 mm 1 mps 741 mmHg 84%
    06:00 +28°C° 0 mm 2 mps 741 mmHg 79%
    07:00 +29°C° 0 mm 2 mps 742 mmHg 73%
    08:00 +30°C° 0 mm 3 mps 742 mmHg 68%
    09:00 +34°C° 0 mm 3 mps 742 mmHg 59%
    10:00 +36°C° 0 mm 3 mps 742 mmHg 51%
    11:00 +38°C° 0 mm 4 mps 742 mmHg 43%
    12:00 +40°C° 0 mm 4 mps 741 mmHg 40%
    13:00 +41°C° 0 mm 4 mps 740 mmHg 38%
    14:00 +42°C° 0 mm 4 mps 739 mmHg 35%
    15:00 +41°C° 0 mm 4 mps 739 mmHg 36%
    16:00 +40°C° 0 mm 4 mps 738 mmHg 38%
    17:00 +40°C° 0 mm 4 mps 737 mmHg 39%
    18:00 +37°C° 0 mm 3 mps 738 mmHg 44%
    19:00 +35°C° 0 mm 3 mps 739 mmHg 50%
    20:00 +32°C° 0 mm 2 mps 739 mmHg 55%
    21:00 +31°C° 0 mm 2 mps 739 mmHg 56%
    22:00 +31°C° 0 mm 2 mps 740 mmHg 58%
    23:00 +30°C° 0 mm 1 mps 740 mmHg 59%

    28 October, Monday

    Time Temperature Precipitation Wind Pressure Humidity
    00:00 +30°C° 0 mm 1 mps 740 mmHg 60%
    01:00 +29°C° 0 mm 2 mps 739 mmHg 62%
    02:00 +29°C° 0 mm 2 mps 739 mmHg 63%
    03:00 +28°C° 0 mm 2 mps 739 mmHg 64%
    04:00 +28°C° 0 mm 1 mps 739 mmHg 65%
    05:00 +28°C° 0 mm 1 mps 740 mmHg 66%
    06:00 +30°C° 0 mm 2 mps 740 mmHg 60%
    07:00 +31°C° 0 mm 2 mps 741 mmHg 55%
    08:00 +34°C° 0 mm 3 mps 742 mmHg 49%
    09:00 +36°C° 0 mm 3 mps 742 mmHg 44%
    10:00 +38°C° 0 mm 4 mps 742 mmHg 38%
    11:00 +41°C° 0 mm 4 mps 741 mmHg 33%
    12:00 +41°C° 0 mm 4 mps 741 mmHg 34%
    13:00 +41°C° 0 mm 4 mps 740 mmHg 35%
    14:00 +41°C° 0 mm 4 mps 739 mmHg 35%
    15:00 +41°C° 0 mm 4 mps 738 mmHg 36%
    16:00 +40°C° 0 mm 4 mps 738 mmHg 37%
    17:00 +40°C° 0 mm 4 mps 737 mmHg 38%
    18:00 +37°C° 0 mm 3 mps 738 mmHg 43%
    19:00 +35°C° 0 mm 2 mps 738 mmHg 49%
    20:00 +32°C° 0 mm 1 mps 738 mmHg 54%
    21:00 +31°C° 0 mm 1 mps 738 mmHg 56%
    22:00 +31°C° 0 mm 1 mps 739 mmHg 57%
    23:00 +30°C° 0 mm 1 mps 739 mmHg 59%

    29 October, Tuesday

    Time Temperature Precipitation Wind Pressure Humidity
    00:00 +30°C° 0 mm 2 mps 739 mmHg 59%
    01:00 +30°C° 0 mm 2 mps 738 mmHg 58%
    02:00 +30°C° 0 mm 2 mps 738 mmHg 58%
    03:00 +29°C° 0 mm 2 mps 738 mmHg 61%
    04:00 +29°C° 0 mm 2 mps 738 mmHg 63%
    05:00 +28°C° 0 mm 2 mps 739 mmHg 66%
    06:00 +30°C° 0 mm 2 mps 739 mmHg 61%
    07:00 +31°C° 0 mm 3 mps 740 mmHg 56%
    08:00 +34°C° 0 mm 3 mps 741 mmHg 52%
    09:00 +36°C° 0 mm 4 mps 741 mmHg 46%
    10:00 +38°C° 0 mm 4 mps 741 mmHg 40%
    11:00 +41°C° 0 mm 5 mps 740 mmHg 34%
    12:00 +42°C° 0 mm 5 mps 740 mmHg 32%
    13:00 +43°C° 0 mm 5 mps 739 mmHg 30%
    14:00 +45°C° 0 mm 5 mps 738 mmHg 29%
    15:00 +43°C° 0 mm 4 mps 737 mmHg 29%
    16:00 +42°C° 0 mm 4 mps 737 mmHg 30%
    17:00 +42°C° 0 mm 4 mps 736 mmHg 31%
    18:00 +39°C° 0 mm 3 mps 736 mmHg 37%
    19:00 +36°C° 0 mm 2 mps 737 mmHg 43%
    20:00 +34°C° 0 mm 2 mps 737 mmHg 49%
    21:00 +32°C° 0 mm 1 mps 737 mmHg 51%
    22:00 +32°C° 0 mm 1 mps 738 mmHg 54%
    23:00 +31°C° 0 mm 1 mps 738 mmHg 56%
    Show more